Погода в Эрешине

Бразилия     27°38′23″S   52°16′44″W
темп.,
°C
ветер,
м/с
пор.,
м/с
влажн.,
%
обл.,
%
осадки,
мм/ч
давл.,
гПа
погр.,
м
27 февраля, сб
сб2700:00+17всв311940 0.0 1016364
03:00+16всв311960 0.0 1016440
06:00+14в38971 0.0 1017238
09:00+19всв611860 0.0 1018625
12:00+24в57720 0.0 10171014
15:00+25вюв56700 0.3 10151174
18:00+22вюв39840 0.5 1014549
21:00+18вюв410950 0.8 1017327
28 февраля, вс
вс2800:00+16в413966 0.0 1017715
03:00+15в414943 0.0 1016612
06:00+15в412940 0.0 1017373
09:00+19в611850 0.0 1017726
12:00+24вюв57690 0.0 10151109
15:00+25юв56660 0.0 10121198
18:00+23юв310780 0.0 1011636
21:00+19вюв413850 0.0 1013454
1 марта, пн
пн100:00+17вюв37940 0.0 1013174
03:00+16в37980 0.0 1012175
06:00+15в259817 0.0 1013107
09:00+21всв348612 0.0 1013309
12:00+25сз34781 2.3 1012847
15:00+24юз22828 7.4 1009676
18:00+23юв24918 2.8 1009237
21:00+19в22944 3.1 101128
2 марта, вт
вт200:00+18всв23950 0.0 101249
03:00+17всв23960 0.0 101162
06:00+16св22960 0.0 101228
09:00+22с24890 0.0 1013373
12:00+25зсз348235 5.6 1012873
15:00+26юз237553 9.6 1010970
18:00+24юв248751 4.0 1010143
21:00+20всв129257 7.3 101323
3 марта, ср
ср300:00+19всв22951 0.0 101430
03:00+18всв22971 0.0 101345
06:00+17всв129745 0.0 101424
09:00+21св229026 0.0 1016282
12:00+26зсз23729 0.6 1014948
15:00+26ююз227811 3.3 1012785
18:00+24юв129194 5.6 101157
21:00+21юв229297 8.0 101323